Dewpoint
7 7 7 7 6 6 6 6 4 4 2 1 -1 -3 -4 -3 -5 -12 -23 -22 -10 -13 -19 -23 -13 -13 -13 -11 -10 -8 -5 -3 -4 -6 -13 -20 -20 -15 -14 -14 -15 -15 -16 -15 -9
9 8 8 7 7 7 7 7 6 5 5 4 2 1 -0 -0 -3 -7 -9 -18 -12 -25 -26 -21 -15 -13 -14 -15 -15 -9 -5 -5 -7 -11 -18 -20 -20 -20 -17 -15 -15 -16 -15 -12 -9
10 10 10 9 8 7 7 7 7 6 6 5 4 3 1 1 -4 -9 -10 -12 -18 -27 -25 -18 -14 -14 -12 -13 -14 -10 -8 -8 -12 -15 -20 -20 -20 -20 -18 -15 -15 -17 -11 -8 -10
10 9 10 10 9 9 8 8 7 7 6 6 5 5 4 2 -3 -8 -7 -11 -25 -20 -19 -17 -17 -15 -13 -13 -14 -13 -13 -11 -11 -18 -21 -20 -20 -20 -20 -18 -17 -16 -9 -7 -6
9 9 9 9 9 9 9 9 8 8 8 7 6 6 5 2 2 -5 -11 -12 -13 -16 -17 -16 -17 -17 -15 -16 -16 -14 -16 -15 -14 -16 -19 -19 -19 -19 -17 -16 -15 -12 -6 -6 -5
9 9 9 9 9 9 9 9 9 9 9 8 8 7 4 0 2 -8 -12 -14 -13 -17 -15 -15 -16 -15 -16 -16 -16 -16 -14 -17 -17 -17 -18 -17 -17 -17 -18 -15 -10 -7 -3 -3 -2
8 8 9 8 8 8 9 8 8 8 8 8 8 8 6 6 4 3 -1 -12 -13 -15 -15 -15 -15 -15 -15 -15 -14 -13 -12 -14 -16 -17 -18 -18 -18 -17 -18 -12 -3 -1 -1 -1 -1
5 7 8 8 9 8 9 9 8 8 8 8 8 9 6 5 5 4 1 -1 -12 -13 -14 -14 -15 -15 -14 -14 -13 -12 -12 -11 -15 -17 -18 -19 -16 -18 -17 -9 0 -0 -1 -1 -1
1 1 3 4 5 7 8 8 8 8 8 8 8 7 5 4 2 1 -1 -1 -8 -11 -13 -13 -14 -14 -14 -11 -10 -11 -10 -12 -13 -17 -17 -18 -17 -19 -15 -5 0 -0 -0 -1 -2
-5 -3 -1 0 1 0 -1 6 7 8 7 7 7 5 5 4 -2 -1 -4 -1 -7 -9 -13 -13 -13 -13 -11 -10 -8 -8 -11 -13 -13 -15 -16 -16 -17 -19 -14 -4 0 -0 -1 -1 -3
-15 -9 -5 -2 -1 2 1 6 5 5 5 6 5 5 3 2 -1 -4 -4 -7 -10 -13 -11 -12 -11 -11 -13 -11 -10 -11 -10 -10 -13 -18 -16 -15 -16 -18 -5 0 1 -0 -1 -1 -2
-20 -20 -14 -6 -1 1 4 5 5 4 5 4 5 5 4 5 3 0 -6 -9 -12 -10 -11 -10 -9 -10 -13 -12 -11 -10 -9 -9 -12 -17 -16 -16 -15 -16 -3 1 -0 -1 -1 -2 -2
-18 -18 -20 -18 -4 0 5 5 5 5 4 4 2 3 -1 2 4 4 4 -8 -12 -11 -11 -10 -10 -10 -10 -9 -8 -8 -9 -12 -15 -17 -18 -18 -16 -17 -1 -1 -1 -1 -1 -2 -3
-11 -14 -13 -13 -5 0 4 5 5 3 3 2 3 2 3 2 3 3 2 3 -11 -10 -11 -10 -12 -11 -10 -8 -8 -6 -11 -13 -15 -14 -12 -16 -11 -15 -0 -0 -1 -1 -2 -2 -3
-6 -9 -7 -7 2 3 1 4 5 2 1 -6 1 -1 2 3 1 1 0 2 -3 -10 -10 -8 -8 -8 -10 -10 -9 -8 -12 -12 -13 -13 -14 -14 -14 -14 0 1 -0 -1 -2 -2 -3
-3 -5 -2 -1 1 1 4 5 4 2 1 -2 2 3 3 2 1 -2 2 1 -3 -10 -10 -7 -10 -10 -9 -11 -10 -11 -13 -10 -11 -12 -10 -12 -13 -10 2 0 -1 -2 -2 -2 -3
-2 -4 -3 -1 -2 1 3 5 5 3 -3 -4 -1 1 3 3 2 -1 -0 -3 -4 -4 -4 -9 -9 -10 -11 -12 -14 -13 -11 -7 -8 -9 -7 -11 -11 -11 -1 -1 -2 -1 -2 -2 -3
-3 -2 -3 -1 -1 1 4 3 3 -1 -2 -4 -3 -5 -0 2 3 2 -0 1 -4 -7 -4 -1 -1 -7 -9 -9 -11 -11 -9 -2 -2 -3 -5 -7 -8 -7 -1 -1 -1 -2 -2 -2 -3
-2 -1 -2 -2 1 1 3 3 0 -0 -1 -1 -2 -2 -4 -1 -0 3 3 1 0 -4 -2 -3 -3 -8 -9 -11 -11 -10 -9 -8 -3 -3 -2 -5 -0 -1 -2 -1 -2 -2 -2 -2 -3
-3 -1 -1 -3 -1 0 1 -1 -1 -2 -4 0 2 -1 -1 -6 2 1 3 2 2 -1 -5 -4 -2 -8 -10 -12 -12 -9 -9 -5 -3 -4 -4 -6 -2 -0 0 -0 -1 -2 -2 -2 -3
-4 -1 -2 -3 -2 1 1 -1 -2 -5 -4 -0 1 2 2 2 1 1 1 -1 -3 -0 -2 -4 -1 -5 -10 -8 -8 -7 -3 -4 -3 -1 -1 -1 -4 -1 -1 -1 -1 -2 -2 -3 -4
-2 -1 -1 -3 -0 0 0 -2 -4 -4 -4 -3 -1 1 2 1 2 1 1 -0 -4 -3 -3 -3 1 -0 -7 -8 -10 -10 -5 -2 0 -1 0 2 -4 -1 -2 -2 -2 -2 -2 -3 -4
-1 -2 -1 -1 -0 -0 -2 -1 -2 -4 -4 -2 -2 -1 1 3 2 3 2 -0 -2 -3 -2 -1 1 5 -1 -5 -8 -10 -9 -6 -1 0 1 2 -3 -1 -2 -2 -2 -2 -2 -3 -4
-2 -2 -2 -0 -1 -3 -2 -1 -1 -3 -3 -4 -3 -3 -3 -2 1 2 2 1 1 -1 -2 -3 -0 0 1 -2 -3 -6 -7 -7 1 3 -4 -3 -1 0 -1 -1 -1 -3 -3 -3 -4
-2 -2 -5 -2 -2 -0 -3 -4 -1 -1 -3 -4 -2 -3 -1 -1 -3 -3 0 1 -1 0 1 0 3 -0 -2 -4 -3 -2 -2 -2 2 -1 2 1 -2 -5 -0 -0 -1 -3 -3 -4 -5
-3 -3 -3 -4 -3 -4 -1 -2 -3 -2 -2 -2 -3 -4 -3 -1 0 1 0 1 1 0 2 2 4 3 1 -1 -1 0 1 1 1 -2 -2 -3 -3 -2 -2 -1 -2 -3 -3 -4 -5
-3 -3 -4 -5 -5 -3 -2 -0 -3 -4 -4 -4 -3 -3 -3 -3 -3 -2 -0 1 1 2 2 3 4 4 5 1 3 4 2 2 1 -0 -1 -1 -3 0 -0 -1 -2 -3 -4 -5 -6
Wind_Speed
8 7 8 7 7 9 10 10 12 13 14 15 15 15 16 16 14 12 7 3 4 7 10 5 6 8 5 2 3 1 4 1 2 3 2 6 3 13 6 10 8 10 18 13 20
10 10 9 9 9 10 10 11 12 13 14 14 15 16 17 17 16 10 4 0 2 5 8 7 8 7 4 3 3 4 3 7 5 4 4 1 2 4 3 10 12 16 15 17 18
14 12 12 11 11 11 11 11 12 12 13 14 15 16 16 17 12 5 7 4 1 5 8 7 6 7 3 4 4 1 5 4 5 10 9 4 2 2 10 1 8 17 17 20 16
16 16 16 14 13 13 13 12 12 13 14 14 14 15 16 14 3 6 9 5 3 8 8 4 7 3 2 3 4 3 5 7 7 10 8 6 5 1 6 7 14 15 22 23 20
19 18 18 18 17 16 16 15 14 13 15 15 16 16 17 9 9 6 3 5 9 9 3 3 6 4 1 2 7 5 2 4 6 11 8 9 7 5 5 15 13 19 24 22 19
22 21 19 19 17 18 18 17 16 16 16 18 17 16 16 4 6 7 7 6 8 7 3 4 4 6 5 2 2 5 5 5 3 8 6 7 4 7 12 17 19 24 24 22 18
24 24 22 21 21 20 19 18 16 18 18 18 18 19 22 22 17 16 14 11 5 4 8 6 7 5 5 6 5 6 4 5 7 10 6 12 3 7 12 22 28 26 24 20 16
25 23 24 23 22 23 21 21 19 18 16 18 18 20 16 10 17 21 18 19 10 5 7 10 11 5 2 6 7 4 3 3 1 5 6 10 7 5 11 29 24 24 21 19 15
25 26 24 25 27 28 27 25 22 20 16 17 15 13 14 7 6 8 7 20 12 10 10 10 9 3 1 4 4 4 4 3 8 7 3 5 5 6 19 30 21 21 19 16 14
20 23 23 23 22 22 20 18 21 22 17 14 16 9 11 5 5 3 2 8 10 7 8 6 2 1 2 4 6 5 3 4 5 4 4 4 7 2 15 29 27 24 17 15 12
13 13 16 19 19 18 15 11 12 11 12 15 6 8 6 5 7 4 7 11 9 5 4 2 0 7 10 7 3 1 3 4 5 6 4 8 5 4 10 22 23 23 19 15 11
13 12 12 13 14 12 8 6 8 5 11 16 24 28 32 28 12 17 4 8 8 8 7 1 8 11 6 4 5 5 6 8 7 5 4 3 9 5 4 7 21 25 19 13 10
13 12 12 12 11 10 11 11 10 8 9 16 29 28 38 28 19 30 23 10 5 6 7 10 10 7 3 6 7 6 6 5 6 2 2 2 6 6 3 13 17 15 13 9 7
10 10 10 7 5 8 11 12 8 2 3 6 7 12 22 23 10 26 35 25 7 12 6 7 14 14 14 8 6 9 7 7 5 4 4 2 5 6 6 7 7 13 12 9 7
9 7 9 7 3 6 5 10 10 5 2 4 4 3 3 14 1 9 35 29 19 8 7 9 5 7 13 13 7 8 6 6 3 4 3 3 2 4 8 6 7 10 9 7 6
10 8 8 9 8 7 8 17 12 4 8 6 3 4 5 10 4 1 14 21 15 7 6 7 5 6 8 2 8 6 4 6 4 2 5 7 6 5 7 9 11 11 11 8 5
12 10 12 11 9 10 12 19 2 4 3 4 5 3 6 5 4 4 6 11 10 9 17 4 15 4 4 2 4 4 6 1 3 1 7 6 8 15 1 10 14 14 13 8 5
14 14 14 14 9 17 17 1 4 7 10 2 3 10 3 3 5 6 4 6 15 3 3 10 7 14 8 19 7 8 9 6 6 4 4 3 7 5 3 11 19 19 13 8 5
15 19 19 17 17 17 11 9 8 5 3 1 5 2 6 5 6 4 6 6 8 14 8 6 7 4 6 5 16 7 9 6 5 1 1 4 2 1 3 6 12 14 10 7 3
21 20 24 19 19 19 6 14 8 4 4 5 4 7 6 11 5 4 7 4 9 11 6 5 5 2 1 6 4 8 9 3 1 5 7 5 5 4 10 10 7 8 9 7 3
18 9 9 25 21 16 8 10 15 20 4 2 4 4 4 2 3 5 6 5 3 5 16 14 3 2 3 4 9 3 3 2 4 5 4 2 5 4 15 13 12 11 10 8 3
17 5 10 21 13 6 12 9 13 12 19 8 4 5 3 2 4 3 3 7 16 3 8 6 1 13 6 3 3 1 6 6 4 5 4 3 8 5 9 11 16 13 10 7 4
9 15 12 29 10 11 12 14 14 8 14 5 9 6 1 3 3 6 6 6 9 9 5 7 5 7 3 4 4 2 3 2 4 2 5 4 4 3 7 8 13 13 11 8 5
12 3 12 26 22 15 16 17 19 17 18 13 10 11 10 15 9 6 3 4 5 3 9 6 4 11 15 3 4 5 5 4 5 2 6 10 4 6 9 9 11 11 10 6 2
14 6 9 6 14 12 17 14 16 15 17 19 4 20 11 6 11 18 12 8 4 6 3 4 4 6 3 6 6 6 5 6 7 14 8 22 16 14 17 16 19 15 11 7 4
15 10 5 6 7 22 14 20 24 18 11 20 16 19 11 13 16 4 12 5 6 6 4 4 5 3 7 3 6 6 8 9 11 14 13 19 25 3 19 16 19 19 15 9 6
28 21 10 14 12 4 13 14 26 21 21 29 17 14 11 25 9 20 18 8 7 5 7 3 4 5 7 6 2 4 21 13 9 10 15 17 8 7 6 13 18 18 12 10 7
Wind_Direction
292 299 306 313 317 322 329 339 343 347 349 345 343 344 339 342 343 322 302 252 303 332 337 310 336 331 331 19 358 161 68 159 248 179 165 333 23 62 79 99 91 108 112 114 133
278 286 291 297 304 307 314 322 332 337 340 343 342 341 339 341 349 22 1 339 12 26 3 7 357 344 356 353 338 84 108 214 207 165 171 174 56 70 95 96 107 113 108 133 140
275 276 279 283 288 293 301 309 315 320 327 333 336 337 336 339 345 21 35 8 80 356 2 5 351 4 344 344 0 346 188 219 235 184 171 163 136 92 135 240 172 146 130 130 136
273 272 275 275 277 281 289 296 303 311 315 322 326 329 331 339 358 337 315 321 309 332 347 358 328 20 17 356 351 346 293 250 221 188 174 175 178 166 195 203 156 142 139 135 125
266 270 277 277 276 276 280 285 294 304 308 311 318 324 322 326 301 309 306 301 307 309 347 2 3 346 34 292 319 176 318 347 287 201 216 174 191 188 185 151 145 143 142 134 129
264 268 269 273 278 282 283 281 289 296 303 305 310 315 313 313 298 280 277 275 325 303 308 331 338 335 286 269 158 302 302 266 275 229 255 183 221 170 203 159 140 146 136 133 132
256 259 263 268 271 274 281 285 289 296 300 302 305 308 299 282 280 268 258 252 260 281 303 313 304 314 334 322 334 290 325 316 214 229 239 204 247 235 202 155 144 137 130 128 119
250 257 258 256 259 269 272 279 285 293 300 303 305 302 281 276 267 266 259 247 230 244 271 294 293 291 258 300 337 355 34 321 277 172 250 166 253 267 185 146 135 136 133 127 114
256 262 264 261 262 263 266 274 279 285 292 292 298 296 274 274 263 299 275 239 232 243 260 273 288 259 243 83 5 3 251 263 320 224 160 181 222 232 136 148 136 140 134 125 110
258 259 260 261 265 272 273 270 276 277 282 285 265 280 263 275 321 302 279 190 229 241 236 242 268 28 30 112 226 208 221 240 249 294 212 201 241 194 133 153 151 150 141 127 111
258 262 260 261 262 265 275 276 284 273 244 226 230 226 231 263 320 280 226 194 187 187 166 299 25 225 219 208 164 34 244 256 266 274 207 226 225 201 123 135 140 153 151 142 117
255 257 262 260 257 257 249 222 245 287 296 258 250 253 251 268 277 249 238 200 178 196 136 42 258 255 212 225 232 238 266 270 277 261 203 218 251 101 183 151 156 158 153 148 129
252 255 259 260 252 241 214 223 253 288 279 273 251 247 250 247 234 239 237 228 200 176 190 193 215 38 198 257 253 229 213 243 210 307 4 112 301 250 52 119 146 153 145 130 103
259 251 259 260 238 228 216 214 215 279 298 266 232 253 220 227 258 236 240 221 217 202 208 231 230 234 259 252 210 255 215 223 165 113 215 97 263 271 161 142 148 154 152 138 108
250 239 231 226 194 192 194 177 165 163 337 245 218 240 205 180 183 223 226 206 214 184 154 227 206 193 225 235 177 240 185 173 137 134 113 265 292 236 134 174 186 179 161 136 94
241 229 216 216 186 187 168 157 163 63 247 302 168 187 118 215 256 87 174 209 232 191 243 218 225 160 198 160 195 131 83 47 47 95 257 188 189 215 191 188 173 174 168 145 100
232 222 217 218 200 173 182 166 133 185 269 245 223 150 209 183 223 201 180 183 182 186 224 216 243 248 191 132 59 127 123 269 292 231 240 218 204 256 299 176 169 163 162 140 102
224 220 218 215 189 186 179 103 174 223 222 344 49 352 320 192 251 210 187 200 216 108 117 206 269 206 197 209 168 189 165 171 210 213 265 132 229 275 76 104 129 146 142 136 106
219 218 219 206 186 194 200 204 212 208 225 284 7 293 262 264 207 255 206 222 210 198 181 186 256 236 209 174 168 194 205 172 115 273 62 233 282 278 123 102 126 140 143 137 86
218 223 228 205 199 191 205 216 236 222 340 28 215 208 232 226 222 200 207 242 221 212 180 224 274 240 220 115 38 173 153 95 331 194 236 252 258 245 184 175 160 158 159 143 84
215 222 226 211 202 200 207 229 240 254 291 257 246 273 261 328 261 242 227 305 242 209 200 220 201 234 113 224 167 146 175 129 144 160 191 256 253 336 192 181 165 166 165 158 142
205 212 194 190 186 194 213 213 234 254 242 254 304 239 245 21 274 259 290 226 349 282 155 200 160 248 212 260 227 174 179 153 150 196 222 158 265 344 151 149 157 163 162 157 147
206 210 190 191 199 212 224 233 235 237 226 221 230 205 329 248 263 238 252 243 1 23 315 196 206 229 240 314 340 153 170 185 105 60 206 176 248 89 116 134 168 164 165 166 159
208 198 202 215 216 208 211 218 225 238 245 229 250 237 240 253 225 264 264 295 322 242 356 6 177 205 225 203 137 163 164 142 104 159 267 254 274 183 196 181 182 178 173 167 166
205 218 205 189 225 215 214 222 220 228 221 210 251 229 222 235 254 247 256 261 267 271 189 75 347 317 266 168 155 161 210 180 185 243 233 263 263 255 198 194 184 177 173 160 155
214 205 189 215 193 221 233 210 221 220 215 219 226 230 233 243 237 21 223 187 226 8 341 199 212 319 301 211 204 208 228 209 225 206 239 244 249 200 195 166 165 168 165 162 165
215 226 230 226 223 191 220 228 218 223 237 239 221 229 230 239 239 253 261 236 236 186 205 216 194 178 235 215 215 276 237 238 245 233 220 231 220 136 162 171 162 158 158 168 174
Height
1545 1544 1545 1543 1541 1540 1538 1536 1535 1533 1530 1529 1527 1525 1522 1520 1519 1516 1515 1516 1515 1514 1513 1512 1511 1511 1512 1512 1512 1512 1523 1531 1519 1516 1515 1508 1507 1509 1509 1508 1511 1514 1515 1520 1522
1543 1543 1543 1542 1540 1539 1536 1535 1535 1533 1530 1528 1526 1525 1521 1519 1518 1517 1516 1515 1514 1514 1514 1510 1509 1510 1512 1512 1513 1513 1526 1520 1511 1510 1511 1510 1509 1511 1513 1511 1513 1515 1517 1517 1519
1541 1540 1541 1540 1539 1537 1536 1534 1533 1531 1530 1527 1526 1524 1522 1520 1518 1518 1517 1516 1515 1514 1513 1511 1511 1510 1512 1513 1513 1514 1520 1512 1509 1506 1506 1507 1508 1509 1512 1515 1513 1514 1516 1518 1517
1540 1538 1539 1538 1537 1536 1535 1532 1531 1530 1529 1526 1525 1523 1522 1520 1524 1519 1518 1517 1516 1515 1512 1511 1512 1511 1512 1515 1513 1517 1512 1512 1507 1507 1507 1506 1506 1507 1509 1508 1510 1513 1515 1516 1516
1536 1536 1535 1535 1536 1534 1533 1531 1530 1528 1528 1525 1524 1521 1520 1518 1518 1518 1517 1516 1516 1515 1513 1512 1513 1513 1512 1513 1512 1512 1511 1511 1510 1509 1507 1506 1505 1506 1507 1509 1509 1512 1514 1515 1515
1532 1532 1532 1533 1533 1532 1530 1529 1528 1526 1526 1524 1523 1520 1520 1516 1515 1515 1515 1516 1515 1514 1514 1513 1514 1513 1512 1512 1513 1510 1509 1509 1507 1510 1508 1508 1506 1506 1508 1508 1510 1512 1513 1515 1515
1527 1528 1529 1528 1530 1531 1528 1527 1526 1525 1524 1522 1521 1519 1515 1513 1511 1510 1512 1514 1514 1513 1514 1514 1513 1514 1513 1512 1511 1509 1509 1508 1506 1506 1506 1506 1508 1506 1504 1505 1509 1512 1514 1515 1516
1522 1524 1524 1523 1525 1526 1526 1525 1523 1522 1522 1521 1518 1517 1510 1508 1507 1506 1507 1509 1512 1512 1514 1514 1513 1513 1511 1512 1511 1512 1512 1516 1504 1503 1502 1504 1513 1499 1500 1505 1512 1514 1516 1515 1515
1517 1518 1519 1519 1519 1521 1521 1521 1521 1519 1519 1518 1516 1516 1506 1503 1502 1502 1502 1504 1510 1511 1512 1512 1514 1512 1511 1515 1521 1518 1524 1518 1511 1501 1500 1502 1505 1496 1500 1504 1512 1514 1515 1514 1514
1512 1513 1514 1515 1514 1514 1516 1517 1518 1517 1515 1515 1513 1517 1504 1502 1502 1500 1499 1501 1506 1510 1512 1512 1513 1514 1515 1518 1528 1520 1521 1515 1516 1504 1502 1503 1501 1496 1500 1501 1506 1511 1514 1515 1515
1508 1508 1510 1511 1510 1510 1513 1516 1519 1515 1508 1508 1504 1501 1499 1499 1501 1501 1500 1499 1502 1506 1513 1514 1518 1518 1512 1510 1509 1511 1515 1516 1511 1502 1502 1503 1500 1497 1500 1503 1508 1510 1511 1513 1514
1504 1505 1507 1507 1507 1508 1509 1513 1515 1514 1506 1500 1499 1497 1496 1496 1498 1499 1501 1501 1500 1504 1506 1514 1518 1508 1508 1509 1510 1511 1517 1515 1508 1500 1501 1500 1500 1501 1503 1504 1505 1508 1511 1512 1513
1500 1502 1502 1504 1505 1506 1507 1510 1512 1513 1509 1492 1489 1486 1489 1491 1488 1490 1497 1497 1498 1502 1504 1507 1502 1500 1507 1509 1511 1510 1512 1510 1506 1501 1500 1501 1507 1498 1507 1505 1509 1511 1512 1512 1512
1497 1498 1501 1501 1505 1505 1506 1509 1511 1512 1512 1488 1481 1470 1475 1481 1477 1483 1486 1493 1496 1497 1501 1501 1493 1495 1502 1508 1509 1512 1501 1500 1503 1509 1517 1505 1521 1501 1504 1507 1509 1510 1511 1511 1511
1495 1496 1497 1500 1501 1505 1506 1507 1510 1511 1536 1480 1475 1471 1470 1476 1473 1473 1473 1483 1484 1491 1497 1493 1490 1494 1496 1495 1501 1503 1498 1500 1501 1512 1513 1510 1517 1496 1501 1508 1508 1508 1509 1510 1509
1493 1495 1496 1498 1500 1503 1504 1506 1510 1521 1528 1478 1471 1471 1473 1473 1471 1469 1472 1478 1479 1487 1486 1486 1484 1485 1486 1485 1489 1496 1502 1507 1512 1515 1517 1508 1506 1485 1498 1488 1497 1502 1505 1507 1507
1492 1493 1496 1496 1499 1501 1503 1507 1514 1518 1483 1475 1470 1469 1470 1471 1471 1470 1472 1475 1479 1491 1485 1486 1482 1481 1482 1487 1488 1493 1503 1519 1519 1521 1508 1496 1501 1467 1483 1482 1487 1497 1503 1504 1504
1489 1492 1493 1496 1497 1500 1502 1505 1513 1486 1480 1469 1469 1472 1475 1470 1470 1468 1471 1474 1473 1476 1483 1488 1488 1479 1473 1474 1485 1492 1494 1513 1513 1515 1505 1495 1497 1481 1486 1485 1488 1494 1500 1503 1502
1487 1487 1489 1493 1495 1498 1501 1499 1492 1484 1475 1473 1473 1477 1474 1471 1471 1470 1470 1471 1468 1468 1481 1485 1479 1465 1464 1467 1471 1487 1490 1486 1502 1504 1511 1496 1491 1490 1490 1492 1492 1495 1498 1502 1503
1482 1483 1483 1490 1493 1497 1501 1491 1483 1475 1475 1475 1478 1474 1474 1469 1471 1471 1470 1460 1461 1463 1466 1470 1480 1465 1463 1465 1468 1469 1477 1496 1500 1501 1501 1487 1488 1482 1490 1490 1492 1495 1496 1498 1498
1478 1480 1479 1484 1490 1494 1489 1486 1478 1475 1478 1481 1478 1476 1472 1470 1468 1468 1464 1461 1456 1459 1460 1463 1474 1469 1466 1468 1469 1474 1479 1479 1481 1487 1489 1494 1482 1474 1478 1482 1486 1491 1494 1497 1498
1472 1474 1473 1478 1485 1483 1479 1475 1475 1473 1478 1479 1477 1476 1474 1472 1472 1468 1465 1462 1458 1457 1462 1466 1476 1473 1468 1461 1459 1458 1465 1470 1492 1483 1483 1484 1471 1477 1477 1483 1486 1490 1492 1495 1496
1466 1469 1469 1472 1472 1473 1474 1473 1473 1471 1475 1475 1476 1474 1473 1473 1479 1470 1466 1461 1460 1461 1462 1456 1472 1483 1472 1470 1464 1462 1465 1465 1472 1477 1475 1482 1468 1479 1483 1485 1487 1488 1490 1493 1494
1464 1463 1466 1465 1462 1464 1466 1466 1471 1469 1471 1472 1469 1470 1472 1472 1472 1470 1464 1459 1457 1459 1464 1460 1462 1460 1457 1455 1458 1463 1460 1463 1477 1489 1473 1469 1470 1481 1484 1483 1484 1486 1488 1490 1490
1453 1451 1451 1456 1456 1456 1460 1460 1462 1465 1463 1465 1466 1466 1466 1471 1468 1468 1464 1461 1459 1457 1458 1463 1470 1466 1450 1444 1450 1456 1460 1465 1479 1468 1482 1472 1472 1463 1472 1473 1477 1480 1486 1488 1487
1446 1446 1447 1449 1448 1453 1454 1451 1452 1455 1456 1453 1458 1455 1461 1467 1460 1457 1459 1462 1460 1460 1461 1460 1470 1470 1460 1452 1452 1453 1458 1460 1464 1458 1463 1459 1454 1458 1460 1470 1474 1475 1480 1484 1487
1437 1439 1442 1441 1444 1448 1443 1443 1442 1448 1449 1449 1451 1456 1460 1449 1454 1457 1457 1457 1459 1461 1464 1465 1463 1464 1457 1453 1462 1467 1451 1457 1455 1453 1452 1453 1445 1454 1463 1466 1470 1474 1476 1482 1486